User: anonymous   Login
Location: Newark
(34.3481°N, 134.0494°E)
Time: 23:30:53
(UTC+00:00)
Language:

Tiros 1 - Orbit

View from above orbital plane
View from above orbital plane
View from above satellite
View from above satellite

Ground track
Ground track

The orbit data is extracted from the following two-line orbital elements,

1    29U 60002B   20022.40114847 -.00000134  00000-0  11002-4 0  9991
2    29  48.3797 282.5961 0024482 322.6970  37.2241 14.74337976196964
Epoch (UTC): 22 January 2020 09:37:39
Eccentricity: 0.0024482
inclination: 48.3797°
perigee height: 630 km
apogee height: 664 km
right ascension of ascending node: 282.5961°
argument of perigee: 322.6970°
revolutions per day: 14.74337976
mean anomaly at epoch: 37.2241°
orbit number at epoch: 19696

The dashed part of the orbit path shows where the satellite is in the earth's shadow,  

DLR